Theta_e
322 321 320 320 320 320 321 322 320 319 318 317 318 318 317 312 312 311 318 312 316 320 322 321 321 324 324 324 326 326 325 323 323 325 325 326 327 327 327 328 329 330 330 331 334 335 334 331 331 333 333 333 334 335
321 323 322 322 321 320 320 321 322 322 322 320 318 318 317 311 313 313 319 317 315 315 318 317 318 319 320 321 324 323 323 324 324 327 327 327 328 328 329 329 328 329 328 330 330 331 331 332 333 331 332 334 335 334
320 321 322 322 322 322 320 320 320 321 322 322 319 318 318 312 313 313 315 316 318 319 320 319 319 319 316 320 320 319 322 321 321 321 323 324 325 325 326 325 326 327 326 329 331 330 330 327 329 331 331 334 334 333
318 318 318 319 320 321 322 321 320 320 320 321 321 318 318 316 313 313 317 317 319 319 322 322 317 321 318 316 315 317 321 322 322 323 324 326 326 325 327 327 327 326 326 328 330 330 329 328 329 331 335 332 332 331
317 318 319 319 319 321 321 322 321 320 319 320 321 321 318 318 313 314 317 318 318 319 322 322 321 320 320 321 322 321 321 322 323 324 327 328 325 326 326 326 326 325 326 326 328 327 327 327 327 327 331 330 329 329
309 314 317 318 319 318 319 321 320 319 319 319 321 321 318 316 314 317 322 320 319 318 320 326 323 321 320 321 322 322 323 323 324 324 326 325 325 325 327 327 325 325 327 327 327 325 325 324 324 324 324 324 325 326
305 306 313 317 316 319 319 319 319 319 319 319 321 321 318 314 314 319 322 321 317 317 321 325 324 321 320 321 322 323 325 325 325 325 325 325 325 324 327 328 327 327 327 327 327 327 327 326 326 324 324 324 324 325
306 306 306 313 317 320 319 320 320 319 319 318 321 320 317 314 316 319 319 316 317 318 320 326 326 324 322 323 325 327 327 326 326 325 325 326 326 326 328 329 327 326 325 326 326 327 327 327 326 324 324 324 324 324
304 305 308 313 316 318 318 318 317 315 317 319 321 317 316 318 321 320 319 317 316 319 323 324 327 330 325 324 325 326 327 328 327 328 327 327 328 330 328 326 324 324 324 324 326 328 328 327 327 328 325 325 325 328
304 304 304 305 309 311 310 310 311 316 318 321 319 320 322 321 318 317 317 318 318 318 319 324 324 326 325 325 326 326 327 328 330 329 326 329 329 328 324 324 321 321 321 325 327 330 328 327 327 332 328 329 330 331
304 304 304 305 305 305 307 309 310 318 320 319 319 321 320 317 318 320 320 320 321 324 322 323 325 327 326 327 328 327 327 328 328 328 329 331 330 328 327 326 326 323 321 324 324 326 328 329 330 331 332 336 337 334
304 304 304 305 305 305 308 311 312 318 320 318 317 317 316 318 320 321 322 322 324 329 325 325 326 326 326 326 327 327 328 328 328 329 331 330 330 327 326 326 325 326 326 322 321 323 324 328 327 328 332 332 334 335
303 304 305 305 306 311 315 316 316 319 318 318 318 319 319 320 322 322 326 327 328 326 327 326 328 328 327 327 327 327 329 327 326 328 329 331 328 326 325 324 323 323 323 324 324 322 323 325 326 325 329 332 332 332
303 304 305 306 306 312 315 317 316 317 317 318 320 322 322 323 323 324 326 328 327 326 326 326 327 327 326 327 327 327 326 326 328 329 331 328 324 324 324 322 322 322 322 323 324 324 323 324 326 328 329 329 331 331
303 305 308 308 308 310 314 315 317 317 317 317 318 325 324 322 323 324 324 325 325 326 325 326 326 326 328 329 327 327 327 329 328 331 327 324 324 322 322 323 323 322 323 322 322 324 324 324 325 327 328 329 329 330
305 310 312 312 314 313 313 315 316 316 317 317 318 322 322 321 323 322 324 325 325 325 327 326 328 328 329 328 329 329 328 329 330 325 322 322 322 322 321 320 321 322 321 321 321 322 323 324 325 326 328 328 329 330
309 310 310 312 314 315 317 317 316 316 314 315 319 319 319 320 322 321 323 325 327 326 327 327 328 328 327 328 327 328 329 327 323 321 320 321 320 321 321 321 321 320 319 319 320 320 321 322 324 326 327 328 328 330
308 309 308 311 313 314 313 315 315 315 316 318 321 321 321 322 322 322 322 322 325 327 326 327 326 327 326 326 326 326 324 322 320 321 320 320 321 322 322 321 319 318 318 318 318 319 319 320 323 325 327 327 329 329
307 308 308 310 311 312 313 314 314 316 318 319 320 319 321 322 320 320 322 320 323 326 327 326 327 327 326 324 324 324 322 321 320 320 320 320 320 319 319 320 320 317 318 317 318 319 319 320 322 325 326 326 328 328
308 310 310 310 311 312 313 314 314 317 319 321 322 322 323 321 322 324 322 321 322 325 326 328 327 325 325 325 324 322 320 320 319 320 320 319 318 318 320 319 318 318 318 319 319 319 320 321 323 324 326 328 328 329
309 311 311 311 312 312 313 314 315 318 319 321 322 322 323 324 325 324 325 326 326 327 328 326 325 326 326 324 321 320 320 320 320 322 321 320 318 320 319 318 319 320 320 319 320 320 321 322 323 326 328 328 331 332
310 311 311 311 312 312 312 314 315 316 318 320 320 320 322 323 326 327 327 327 327 325 325 325 326 326 326 323 321 321 321 322 322 322 321 318 320 318 318 321 321 321 320 320 322 322 325 325 325 326 327 330 331 331
310 311 312 312 312 314 315 316 317 318 320 319 319 321 323 322 323 326 327 326 324 323 325 327 328 327 323 322 322 322 322 323 322 321 320 317 319 319 322 322 322 324 323 323 324 324 324 326 326 327 328 330 331 331
310 312 312 313 314 315 317 317 316 319 319 320 320 322 322 324 324 325 325 323 324 325 327 328 327 324 321 322 321 321 320 320 320 320 318 315 320 317 317 319 320 322 324 324 325 326 326 327 327 328 329 329 329 330
311 312 313 313 315 316 318 320 319 318 319 319 320 320 321 325 327 326 326 324 325 327 326 327 325 323 321 321 320 320 321 320 320 320 317 315 319 319 318 318 319 319 321 322 324 325 326 326 325 328 327 328 328 327
311 313 314 316 317 318 319 319 321 319 319 321 322 320 321 326 325 324 325 325 326 326 326 325 323 321 320 320 321 320 321 320 320 317 315 314 316 316 319 319 319 320 320 321 324 325 325 325 323 324 324 324 326 326
313 315 316 317 315 317 318 318 319 321 321 322 323 324 324 325 324 325 325 324 325 325 325 324 323 321 320 321 321 320 319 321 321 317 315 314 317 317 319 319 319 320 320 319 321 323 322 322 323 323 323 323 323 323
313 315 318 318 317 317 318 319 320 322 322 322 323 325 323 324 325 326 326 325 325 324 324 323 322 321 320 321 321 320 320 320 319 317 316 315 316 316 318 319 319 320 321 320 319 317 318 320 322 322 321 321 320 321
314 315 317 318 317 318 318 318 319 320 322 322 326 326 325 325 326 327 328 326 325 324 323 322 322 320 320 321 321 320 320 320 317 315 314 314 315 316 316 318 321 320 320 320 318 317 318 320 319 318 319 320 320 320
317 317 318 318 318 318 319 319 320 320 321 322 324 325 325 324 325 326 326 326 325 325 323 322 321 320 321 321 320 320 320 319 320 317 315 314 314 314 314 315 317 319 321 321 321 318 316 317 319 320 320 320 318 316
318 317 317 318 319 319 320 320 321 321 322 323 324 325 325 325 325 325 326 326 326 325 323 322 320 320 321 321 322 321 321 320 318 316 315 315 314 314 313 313 314 315 317 318 318 317 317 317 318 319 319 318 319 319
318 318 319 319 319 320 322 323 323 322 321 322 322 323 324 326 326 325 326 326 326 325 323 323 321 321 321 322 322 323 321 319 318 316 316 316 315 314 313 312 311 312 313 314 315 315 315 315 316 316 315 315 315 314
317 316 316 319 322 323 324 324 325 326 324 324 323 323 324 325 325 326 328 326 326 325 324 322 322 323 323 323 322 321 320 319 319 317 316 315 315 314 314 313 311 310 310 310 311 312 312 313 313 313 313 312 312 311
Wind_Speed
16 12 8 6 7 7 10 12 13 13 14 15 14 12 13 12 11 7 4 5 2 8 13 8 9 9 7 7 8 5 4 10 8 8 10 10 10 11 12 13 14 14 14 13 13 17 20 12 13 13 13 5 7 5
15 15 14 11 10 9 9 9 11 13 15 15 15 13 13 12 11 9 2 8 5 6 8 8 9 9 13 11 11 3 8 5 6 4 4 5 9 7 10 12 12 14 14 12 16 14 13 7 16 13 13 14 10 8
16 15 15 15 13 12 11 10 10 11 13 15 15 14 13 13 11 9 3 6 5 6 10 7 5 6 14 13 8 7 5 4 5 5 9 6 8 8 10 10 14 14 16 13 16 17 23 25 13 19 17 8 9 10
17 17 18 19 18 16 14 13 12 12 12 13 15 15 13 13 11 8 1 4 6 6 6 6 2 1 5 9 12 12 5 5 7 6 10 7 8 9 10 12 12 14 18 13 17 18 23 22 22 20 8 7 12 16
15 15 15 16 15 16 16 15 14 13 14 13 13 15 14 13 10 7 3 3 4 4 7 6 2 6 5 7 6 7 8 9 10 11 8 9 14 12 13 13 13 18 15 12 13 19 20 20 21 18 16 18 20 20
14 16 15 15 15 14 16 17 16 14 15 14 12 14 14 12 7 3 3 2 3 5 5 3 2 7 10 10 8 8 8 10 12 13 9 13 14 14 7 10 14 18 20 21 20 21 24 26 26 28 27 24 24 28
10 12 13 12 12 11 13 14 13 12 14 12 10 13 13 10 4 4 4 4 7 6 4 5 5 7 12 10 11 12 10 11 12 14 16 17 17 13 11 13 9 14 20 24 25 27 31 29 30 28 27 27 25 23
9 8 10 12 11 9 9 9 11 12 13 11 10 12 11 5 0 2 5 9 5 3 4 4 3 7 13 13 14 9 9 12 10 12 13 11 12 8 6 8 12 17 21 22 23 27 32 33 32 32 30 28 27 30
9 9 8 10 12 11 11 11 10 10 9 9 10 10 2 2 3 5 11 9 5 5 5 4 7 4 7 10 5 7 4 7 5 7 10 4 6 4 4 12 15 17 14 23 31 27 26 22 29 33 30 28 29 29
9 9 9 9 11 12 11 10 9 8 7 8 7 2 3 3 4 4 6 0 3 5 6 6 2 3 4 2 5 4 2 3 5 6 3 5 7 9 2 3 7 11 15 20 30 20 21 18 27 32 24 22 22 19
9 9 9 9 9 11 10 9 9 6 5 3 3 0 1 3 1 2 2 3 4 5 7 9 5 5 5 5 5 4 2 4 3 4 3 4 4 7 4 7 10 13 13 14 19 22 22 19 22 22 24 14 6 6
8 8 8 8 8 9 8 7 8 7 4 5 4 5 4 4 5 3 3 3 5 3 9 9 8 5 1 1 6 2 3 3 6 6 3 3 5 4 5 10 13 15 18 21 18 18 21 20 23 19 18 9 8 6
8 7 8 8 8 8 6 6 7 8 4 3 2 4 4 4 1 5 7 5 4 6 8 9 7 5 5 4 4 2 4 5 5 4 3 3 7 4 10 15 20 22 21 20 23 21 17 18 17 19 21 15 11 11
8 8 7 7 8 10 8 7 8 6 4 4 6 2 5 6 6 6 8 4 7 4 10 8 5 5 5 4 3 4 3 3 4 4 1 4 6 12 16 21 19 19 18 19 21 17 18 16 17 16 15 14 13 13
8 7 4 5 6 8 12 10 8 9 4 5 5 4 8 11 6 5 6 3 6 5 5 4 7 6 3 3 4 3 3 5 2 4 3 10 16 16 16 15 16 16 18 19 20 21 19 17 16 17 15 14 14 14
5 2 3 3 2 5 8 11 9 10 3 4 7 8 10 8 7 10 11 11 7 6 3 6 3 3 4 3 4 6 4 3 3 4 11 15 13 12 13 16 16 16 18 21 21 21 20 19 17 18 16 15 14 14
2 2 2 4 4 5 8 12 9 6 5 4 8 14 14 13 11 11 7 1 4 3 5 4 4 1 3 3 4 3 4 7 14 16 12 10 14 16 18 19 19 21 22 25 23 22 20 19 17 18 17 15 14 15
3 4 4 2 3 7 12 8 5 5 7 12 15 13 10 9 10 11 8 8 8 6 7 4 4 5 3 5 5 4 6 9 9 10 11 13 17 19 21 22 22 22 25 26 20 20 19 17 15 16 14 14 14 14
4 4 6 6 9 5 3 5 5 4 12 16 13 16 13 12 14 15 13 12 11 10 6 5 4 4 2 3 10 11 8 8 8 11 13 17 17 18 23 22 19 29 26 23 20 16 15 14 14 14 12 12 12 11
5 6 8 11 8 5 3 4 5 6 6 6 11 11 10 11 13 13 12 14 14 12 8 4 6 7 9 7 6 5 3 4 8 14 16 19 22 23 21 27 29 25 21 18 12 12 11 12 11 11 11 12 10 10
2 0 6 10 11 8 4 3 5 7 7 7 5 5 8 9 13 13 14 12 10 7 6 14 12 11 1 2 3 3 2 4 10 13 18 23 25 19 27 32 18 14 12 8 8 8 8 8 8 8 9 7 8 8
4 3 2 9 5 5 6 8 6 5 6 9 11 11 8 9 9 10 10 14 13 15 16 15 9 3 3 7 7 4 3 6 10 14 17 20 18 27 32 20 15 13 7 4 5 6 6 5 5 7 6 7 5 4
7 4 4 5 5 5 5 6 5 4 4 2 4 4 6 8 6 8 5 10 15 15 11 6 5 8 8 10 8 5 5 7 11 12 13 15 18 31 22 17 14 15 10 5 3 3 3 2 2 2 3 2 2 3
8 4 4 5 8 5 5 6 5 5 6 4 3 5 8 4 5 5 6 13 14 10 7 8 10 11 12 10 8 6 5 6 10 8 10 13 11 25 24 26 24 16 14 9 8 6 5 5 4 2 3 4 5 8
5 6 5 7 7 5 4 4 6 4 3 4 5 5 4 6 3 5 7 8 10 7 8 11 13 13 13 10 8 6 3 5 9 8 9 10 8 11 18 22 20 19 17 14 14 10 9 8 6 6 6 8 8 15
4 6 5 7 4 4 4 3 5 6 4 2 5 7 9 3 4 3 3 5 6 5 9 12 15 15 12 10 7 4 3 3 7 8 9 8 10 13 13 16 18 17 15 7 7 10 12 11 11 12 10 10 13 14
4 7 8 8 3 1 3 4 5 4 5 5 4 4 4 5 4 2 7 4 2 1 6 13 15 14 12 8 6 3 1 2 4 4 6 6 8 10 13 13 13 19 29 21 12 8 9 9 10 12 11 12 13 14
6 5 5 3 4 6 4 2 2 3 4 6 6 4 2 2 2 4 9 4 3 4 7 13 14 13 10 9 7 6 4 1 3 2 2 6 8 8 9 12 16 14 18 23 24 22 23 19 13 9 10 13 13 16
6 7 9 7 6 6 7 6 5 7 7 5 3 3 1 3 4 4 5 2 2 5 9 13 14 13 10 9 8 7 4 2 5 5 5 6 6 7 6 6 4 5 9 12 18 15 14 16 21 28 26 22 20 20
10 10 5 5 4 4 9 14 11 15 14 11 10 9 7 7 7 3 3 3 5 8 10 12 14 15 13 12 11 9 6 3 1 5 6 6 6 5 5 5 5 4 4 7 8 12 14 13 15 13 15 17 20 23
3 8 4 8 11 16 16 15 14 16 17 15 10 11 11 9 8 7 7 7 6 9 11 13 15 16 14 11 11 12 10 6 5 7 7 8 8 8 7 6 5 6 6 7 9 11 11 11 12 12 13 14 14 16
5 9 7 3 6 9 9 11 13 17 18 18 16 16 13 9 8 11 9 8 8 10 12 11 14 15 13 10 12 13 10 10 10 8 7 7 7 8 9 9 8 8 8 9 9 9 10 11 13 14 15 16 16 17
5 8 6 8 7 5 6 7 4 5 9 13 14 15 14 10 8 3 6 8 9 12 13 13 11 10 11 11 12 13 13 12 12 13 11 9 8 8 7 9 11 12 12 11 11 10 10 10 10 11 11 11 11 11
Wind_Direction
252 262 274 308 328 339 355 4 6 5 2 1 0 4 5 6 1 10 296 323 312 275 283 287 265 263 240 245 273 87 257 217 260 245 261 264 257 259 264 266 265 273 271 262 249 257 266 282 276 251 281 324 258 306
254 254 259 263 276 300 312 335 349 357 358 356 355 355 359 3 1 3 3 329 304 249 278 294 254 241 240 250 287 187 292 316 338 293 259 296 283 283 267 274 271 261 257 276 286 296 318 332 304 291 295 312 291 288
265 260 261 259 265 270 281 296 312 328 342 352 350 348 351 355 357 357 345 341 342 282 278 245 231 258 232 213 212 266 196 254 254 292 304 295 280 293 277 278 288 273 268 277 281 276 289 296 295 300 273 256 301 288
257 260 263 262 263 266 263 270 290 307 313 333 344 342 343 347 349 355 16 320 352 302 279 124 176 345 150 199 219 222 273 248 267 280 274 273 277 276 276 292 291 288 302 289 285 283 282 280 289 287 259 255 270 273
257 260 265 269 262 259 263 264 276 289 299 306 326 334 335 338 336 333 289 273 356 352 324 326 273 207 174 177 184 209 236 256 265 260 245 255 269 278 272 272 271 271 277 274 280 302 303 296 295 291 277 270 272 276
266 262 260 266 269 265 262 266 272 273 291 293 309 326 326 328 327 359 220 251 295 345 289 267 111 195 197 196 206 229 244 253 254 266 268 269 262 259 265 274 295 322 332 334 318 308 294 289 277 275 272 272 272 272
271 265 264 253 263 264 265 267 259 267 285 286 303 319 319 316 282 251 322 196 305 327 270 264 195 175 188 205 230 239 240 249 259 274 253 258 271 253 263 267 330 332 319 312 306 303 292 283 282 273 268 268 272 274
281 270 263 253 254 256 268 259 264 271 276 282 308 315 318 317 114 298 268 260 298 289 250 266 206 176 191 225 225 200 254 240 237 248 274 268 290 238 263 17 330 325 320 308 304 292 289 285 278 267 265 264 266 263
282 279 268 252 248 257 261 265 265 269 271 281 305 316 330 95 238 239 268 285 274 223 282 245 265 130 175 240 260 260 238 276 296 256 256 233 257 235 342 328 330 333 328 310 312 296 286 287 300 282 255 250 253 258
280 279 274 262 255 256 258 260 262 251 254 280 312 284 201 190 270 293 351 141 232 212 232 257 324 236 209 215 263 334 187 264 230 212 214 245 259 127 73 346 324 325 336 324 332 318 321 317 275 279 272 263 259 260
284 281 279 269 259 251 250 251 248 241 254 243 227 21 235 262 303 230 259 242 191 226 206 234 266 309 144 284 311 189 240 222 241 207 237 218 201 160 221 291 304 310 323 322 330 333 329 324 315 322 309 304 20 275
287 289 281 274 258 247 246 248 221 214 200 190 237 259 257 229 221 226 228 193 232 253 163 207 185 217 313 245 249 165 255 226 247 147 239 244 121 112 325 315 317 312 304 309 310 318 327 322 326 317 327 341 3 333
292 288 279 271 255 227 227 229 205 207 212 291 255 226 208 198 293 218 192 195 213 196 163 194 190 237 155 240 242 242 231 234 321 236 226 63 115 360 324 321 311 306 301 299 301 303 307 314 322 306 316 327 344 336
300 292 282 271 245 214 211 204 202 217 205 227 208 255 222 189 237 208 248 66 95 192 170 218 182 240 203 187 236 245 253 284 251 236 100 92 8 336 327 312 306 310 308 306 304 302 295 295 297 301 302 309 322 321
312 303 283 261 242 218 213 215 210 198 210 237 227 242 217 250 283 275 280 305 193 239 264 206 252 251 167 224 223 269 236 238 232 29 4 359 348 338 323 317 316 317 314 310 306 305 299 289 286 290 295 305 309 309
324 155 292 321 266 205 196 209 212 184 237 242 234 253 247 254 263 212 210 226 221 214 307 246 271 272 225 232 205 229 265 327 356 352 343 329 327 317 318 316 313 310 317 312 303 298 298 285 280 282 289 293 296 298
65 191 328 330 209 190 198 197 191 200 222 243 252 239 258 277 286 287 317 5 228 286 245 206 226 191 281 246 243 357 307 327 343 322 326 318 306 310 305 305 305 311 307 308 299 285 288 289 282 284 279 286 288 290
212 270 238 226 169 183 189 183 197 223 234 241 252 253 249 251 274 277 268 249 252 233 265 293 281 235 245 284 312 283 304 298 317 327 308 306 302 300 304 305 306 302 306 307 300 283 281 278 271 268 274 279 285 299
250 248 229 222 182 181 214 221 218 257 237 249 247 256 267 265 261 256 255 250 244 246 276 281 248 252 272 300 292 306 327 313 320 317 310 308 305 324 320 311 309 313 303 308 296 274 270 267 256 262 275 280 286 292
262 276 221 217 207 194 233 236 212 261 266 268 260 263 243 245 247 242 240 231 228 222 230 232 256 302 274 296 324 297 294 310 308 308 324 328 327 328 330 324 320 312 308 301 286 265 263 268 262 259 266 270 272 281
278 26 186 200 209 218 253 244 240 246 273 270 272 283 265 263 265 245 235 224 211 222 239 246 259 243 261 276 225 188 239 310 323 329 323 325 329 335 335 332 332 330 321 294 272 264 265 262 251 272 267 265 271 260
189 210 216 192 190 227 250 234 237 276 260 286 291 262 241 249 250 230 217 211 222 235 234 242 242 239 199 189 184 197 264 301 319 323 333 336 357 351 345 342 353 347 332 300 275 270 277 267 257 257 260 264 249 262
199 194 208 208 223 224 249 210 235 244 256 273 272 272 243 233 219 184 208 225 238 247 259 222 217 199 188 180 191 220 260 297 315 332 342 353 14 9 17 21 20 15 9 345 307 274 270 261 252 222 254 207 51 140
185 196 223 216 211 250 213 199 217 249 220 227 258 246 260 275 202 225 242 240 226 212 204 195 186 175 175 186 206 229 270 310 322 336 348 350 8 12 15 24 25 21 33 22 28 41 55 64 66 77 117 92 91 106
183 223 211 226 221 237 253 195 191 207 241 232 236 244 223 194 217 219 230 212 205 191 203 195 192 187 189 193 209 218 213 314 340 335 3 358 347 2 2 10 9 9 9 11 25 37 46 51 61 81 99 98 111 115
214 219 225 208 207 246 185 261 198 196 196 243 257 234 219 218 241 233 152 180 179 201 199 196 189 183 190 196 198 196 151 353 341 3 1 0 2 1 358 348 353 357 353 10 17 49 65 59 62 77 80 115 123 127
241 226 222 226 221 231 268 257 257 253 201 215 237 215 206 228 213 104 129 92 53 193 200 188 184 184 183 184 187 188 187 344 10 13 22 30 29 27 22 26 40 52 62 62 63 60 63 72 75 80 95 109 105 120
252 272 248 194 215 227 249 243 241 241 224 254 262 229 210 212 116 50 111 95 86 121 157 171 176 180 185 171 178 181 182 225 46 59 82 60 45 47 50 67 101 78 54 59 60 61 64 68 80 106 102 96 120 134
239 240 240 231 227 220 220 221 218 232 223 262 274 286 54 68 177 107 106 118 153 160 164 174 180 183 177 173 172 178 190 171 94 73 59 63 64 64 69 77 92 70 64 51 57 74 108 87 81 88 86 95 117 132
239 223 228 227 225 233 221 208 241 227 230 257 268 296 296 261 245 216 233 222 222 204 191 187 185 186 184 183 182 187 196 203 258 102 81 80 77 72 78 86 85 89 85 77 69 70 82 94 100 102 94 88 85 97
222 178 230 257 263 255 250 239 235 240 244 251 250 248 249 279 297 268 239 232 219 199 193 194 186 190 194 193 180 197 196 194 118 106 103 90 83 80 79 84 89 91 95 91 93 92 94 99 103 106 104 100 112 128
240 223 242 257 280 274 240 245 242 237 240 242 245 249 256 272 286 275 209 200 203 199 203 206 191 191 199 201 194 198 188 174 164 156 138 116 95 90 79 76 86 94 98 99 102 106 106 105 105 106 106 108 109 110
218 249 252 264 256 242 231 202 250 253 223 222 227 230 212 204 233 212 184 198 206 207 201 201 194 185 185 190 184 177 177 178 170 170 169 157 136 127 99 88 87 87 90 93 98 105 111 115 118 117 118 120 120 121